Time,TemperatureF,DewpointF,PressureIn,WindDirection,WindDirectionDegrees,WindSpeedMPH,WindSpeedGustMPH,Humidity,HourlyPrecipIn,Conditions,Clouds,dailyrainin,SoftwareType,DateUTC
2013-11-06 00:23:00,38.0,35.0,30.50,South,170,0.0,0.0,89,0.00,,,0.00,,2013-11-06 05:23:00,
2013-11-06 00:53:00,37.0,34.0,30.49,South,169,0.0,0.0,90,0.00,,,0.00,,2013-11-06 05:53:00,
2013-11-06 01:22:00,36.0,34.0,30.49,South,169,0.0,0.0,91,0.00,,,0.00,,2013-11-06 06:22:00,
2013-11-06 01:42:00,36.0,34.0,30.48,South,169,0.0,0.0,91,0.00,,,0.00,,2013-11-06 06:42:00,
2013-11-06 01:52:00,36.0,34.0,30.48,South,169,0.0,0.0,91,0.00,,,0.00,,2013-11-06 06:52:00,
2013-11-06 02:22:00,37.0,35.0,30.47,SSE,166,0.0,0.0,92,0.00,,,0.00,,2013-11-06 07:22:00,
2013-11-06 02:52:00,37.0,35.0,30.45,SSE,166,0.0,0.0,92,0.00,,,0.00,,2013-11-06 07:52:00,
2013-11-06 03:22:00,37.0,35.0,30.47,SSE,166,0.0,0.0,92,0.00,,,0.00,,2013-11-06 08:22:00,
2013-11-06 03:52:00,37.0,35.0,30.45,SSE,166,0.0,0.0,92,0.00,,,0.00,,2013-11-06 08:52:00,
2013-11-06 04:22:00,36.0,34.0,30.44,SSE,166,0.0,0.0,92,0.00,,,0.00,,2013-11-06 09:22:00,
2013-11-06 04:33:00,36.0,34.0,30.44,SSE,166,0.0,0.0,92,0.00,,,0.00,,2013-11-06 09:33:00,
2013-11-06 04:53:00,36.0,34.0,30.44,SSE,166,0.0,0.0,92,0.00,,,0.00,,2013-11-06 09:53:00,
2013-11-06 05:23:00,36.0,34.0,30.44,SSE,166,0.0,0.0,93,0.00,,,0.00,,2013-11-06 10:23:00,
2013-11-06 05:52:00,35.0,33.0,30.44,SSE,166,0.0,0.0,93,0.00,,,0.00,,2013-11-06 10:52:00,
2013-11-06 06:22:00,34.0,32.0,30.44,SSE,166,0.0,0.0,93,0.00,,,0.00,,2013-11-06 11:22:00,
2013-11-06 06:42:00,33.0,31.0,30.43,SSE,166,0.0,0.0,94,0.00,,,0.00,,2013-11-06 11:42:00,
2013-11-06 06:52:00,34.0,32.0,30.43,SSE,166,0.0,0.0,94,0.00,,,0.00,,2013-11-06 11:52:00,
2013-11-06 07:22:00,35.0,34.0,30.42,SSE,165,0.0,0.0,95,0.00,,,0.00,,2013-11-06 12:22:00,
2013-11-06 07:52:00,36.0,35.0,30.42,SSE,165,0.0,0.0,95,0.00,,,0.00,,2013-11-06 12:52:00,
2013-11-06 08:22:00,40.0,38.0,30.42,SSE,164,0.0,0.0,93,0.00,,,0.00,,2013-11-06 13:22:00,
2013-11-06 08:52:00,45.0,41.0,30.41,SSE,163,0.0,0.0,86,0.00,,,0.00,,2013-11-06 13:52:00,
2013-11-06 09:22:00,48.0,43.0,30.41,SSE,163,0.0,0.0,83,0.00,,,0.00,,2013-11-06 14:22:00,
2013-11-06 09:52:00,53.0,46.0,30.39,SSE,163,1.0,0.0,76,0.00,,,0.00,,2013-11-06 14:52:00,
2013-11-06 10:22:00,55.0,46.0,30.38,SSW,195,4.0,0.0,72,0.00,,,0.00,,2013-11-06 15:22:00,
2013-11-06 10:54:00,56.0,47.0,30.37,SSW,208,4.0,10.0,71,0.00,,,0.00,,2013-11-06 15:54:00,
2013-11-06 11:23:00,56.0,46.0,30.35,SSE,166,0.0,10.0,70,0.00,,,0.00,,2013-11-06 16:23:00,
2013-11-06 11:53:00,57.0,47.0,30.34,SSW,211,1.0,9.0,70,0.00,,,0.00,,2013-11-06 16:53:00,
2013-11-06 12:23:00,57.0,47.0,30.32,SW,224,9.0,9.0,70,0.00,,,0.00,,2013-11-06 17:23:00,
2013-11-06 12:52:00,58.0,49.0,30.30,South,188,5.0,15.0,71,0.00,,,0.00,,2013-11-06 17:52:00,
2013-11-06 13:22:00,58.0,48.0,30.29,SW,235,14.0,15.0,69,0.00,,,0.00,,2013-11-06 18:22:00,
2013-11-06 13:42:00,58.0,49.0,30.27,WSW,248,4.0,9.0,71,0.00,,,0.00,,2013-11-06 18:42:00,
2013-11-06 13:52:00,58.0,49.0,30.26,SSW,207,7.0,9.0,71,0.00,,,0.00,,2013-11-06 18:52:00,
2013-11-06 14:22:00,58.0,49.0,30.26,WSW,239,5.0,9.0,73,0.00,,,0.00,,2013-11-06 19:22:00,
2013-11-06 14:52:00,58.0,49.0,30.25,SW,230,13.0,15.0,73,0.00,,,0.00,,2013-11-06 19:52:00,
2013-11-06 15:22:00,58.0,50.0,30.24,SSW,205,4.0,15.0,76,0.00,,,0.00,,2013-11-06 20:22:00,
2013-11-06 15:52:00,57.0,50.0,30.24,South,182,7.0,8.0,78,0.00,,,0.00,,2013-11-06 20:52:00,
2013-11-06 16:22:00,57.0,51.0,30.24,SW,226,2.0,8.0,80,0.00,,,0.00,,2013-11-06 21:22:00,
2013-11-06 16:54:00,56.0,52.0,30.23,SSW,212,2.0,9.0,85,0.00,,,0.00,,2013-11-06 21:54:00,
2013-11-06 17:23:00,55.0,51.0,30.22,SSW,206,0.0,9.0,87,0.00,,,0.00,,2013-11-06 22:23:00,
2013-11-06 17:43:00,55.0,52.0,30.22,SW,224,0.0,7.0,88,0.00,,,0.00,,2013-11-06 22:43:00,
2013-11-06 17:53:00,55.0,52.0,30.22,SW,224,0.0,7.0,88,0.00,,,0.00,,2013-11-06 22:53:00,
2013-11-06 18:22:00,55.0,52.0,30.20,SSW,200,0.0,7.0,90,0.00,,,0.00,,2013-11-06 23:22:00,
2013-11-06 18:53:00,55.0,53.0,30.19,SSW,193,0.0,0.0,92,0.00,,,0.00,,2013-11-06 23:53:00,
2013-11-06 19:22:00,55.0,53.0,30.19,SSW,208,0.0,0.0,92,0.00,,,0.00,,2013-11-07 00:22:00,
2013-11-06 19:52:00,55.0,53.0,30.17,SW,222,0.0,0.0,92,0.00,,,0.00,,2013-11-07 00:52:00,
2013-11-06 20:12:00,55.0,53.0,30.16,SSW,208,0.0,0.0,92,0.00,,,0.00,,2013-11-07 01:12:00,
2013-11-06 20:22:00,55.0,53.0,30.16,SSW,208,0.0,0.0,92,0.00,,,0.00,,2013-11-07 01:22:00,
2013-11-06 20:52:00,55.0,53.0,30.14,SW,230,0.0,0.0,92,0.00,,,0.00,,2013-11-07 01:52:00,
2013-11-06 21:22:00,56.0,53.0,30.14,SW,231,5.0,0.0,91,0.00,,,0.00,,2013-11-07 02:22:00,
2013-11-06 22:22:00,55.0,52.0,30.12,SW,232,7.0,9.0,90,0.00,,,0.00,,2013-11-07 03:22:00,
2013-11-06 22:55:00,55.0,52.0,30.11,South,191,0.0,7.0,91,0.00,,,0.00,,2013-11-07 03:55:00,
2013-11-06 23:24:00,55.0,53.0,30.09,SW,226,3.0,7.0,93,0.00,,,0.00,,2013-11-07 04:24:00,
2013-11-06 23:53:00,55.0,53.0,30.08,WSW,239,0.0,0.0,94,0.00,,,0.00,,2013-11-07 04:53:00,